Regional Weather Roundup
Issued by NWS Little Rock, AR

Home | Current Version | Previous Version | Graphics & Text | Print | Product List | Glossary On
Versions: 1 2 3 4 5 6 7 8 9 10 11 12 13 14 15 16 17 18 19 20 21 22 23 24 25 26 27 28 29 30 31 32 33 34 35 36 37 38 39 40 41 42 43 44 45 46 47
000
ASUS44 KLZK 020705
RWRLZK

WEATHER ROUNDUP FOR ARKANSAS
NATIONAL WEATHER SERVICE LITTLE ROCK AR
200 AM CDT TUE JUN 02 2015

NOTE: "FAIR" INDICATES FEW OR NO CLOUDS BELOW 12,000 FEET WITH NO
SIGNIFICANT WEATHER AND/OR OBSTRUCTIONS TO VISIBILITY.

ARZ001-003-010-029-020800-
NORTHWEST ARKANSAS

CITY           SKY/WX    TMP DP  RH WIND       PRES   REMARKS
FAYETTEVILLE   CLEAR     59  59 100 CALM      30.08S
FORT SMITH     CLEAR     67  63  87 E8        30.05S
HARRISON       CLOUDY    61  59  93 SE7       30.11S
BENTONVILLE    CLEAR    N/A N/A N/A E5        30.09S
ROGERS         CLEAR     61  58  90 E7        30.10S
SILOAM SPGS    CLEAR     61  54  77 E3        30.09S
HIGHFILL       CLEAR     60  58  92 E6        30.08S
$$

ARZ004-005-016-020800-
NORTH CENTRAL ARKANSAS

CITY           SKY/WX    TMP DP  RH WIND       PRES   REMARKS
BATESVILLE     CLOUDY    61  59  94 CALM      30.10S
FLIPPIN        CLOUDY    63  57  82 E5        30.10S
MTN HOME       CLOUDY    59  57  93 E6        30.10F
$$

ARZ040-041-020800-
WEST CENTRAL ARKANSAS

CITY           SKY/WX    TMP DP  RH WIND       PRES   REMARKS
MENA           MOCLDY    66  64  94 CALM      30.08S
MOUNT IDA      CLOUDY    68  64  87 CALM      30.05F
$$

ARZ009-017-025-026-028-020800-
NORTHEAST ARKANSAS

CITY           SKY/WX    TMP DP  RH WIND       PRES   REMARKS
CORNING          N/A     63  61  94 N3        30.10F
JONESBORO      CLOUDY    62  60  93 NE3       30.09F
NEWPORT        CLOUDY    63  61  93 NE10      30.11S
WALNUT RIDGE   CLEAR     61  57  88 NW3       30.10S
BLYTHEVILLE    CLOUDY    63  62  97 NE8       30.09S
$$

ARZ022-023-033-042-044-020800-
CENTRAL ARKANSAS

CITY           SKY/WX    TMP DP  RH WIND       PRES   REMARKS
LITTLE ROCK    CLOUDY    68  61  78 E3        30.08F
N LITTLE ROCK    N/A     66  63  89 E5        30.08F
JACKSONVILLE   CLOUDY    65  64  93 N2        30.08S
SEARCY         CLOUDY    64  60  87 NE8       30.10S
HOT SPRINGS    MOCLDY    67  62  84 E7        30.07S
RUSSELLVILLE   CLOUDY    68  62  81 E6        30.08S
$$

ARZ036-020800-
EAST ARKANSAS

CITY           SKY/WX    TMP DP  RH WIND       PRES   REMARKS
WEST MEMPHIS   CLEAR     61  61 100 N5        30.08S
$$

ARZ050-053-066-070-073-020800-
SOUTHWEST ARKANSAS

CITY           SKY/WX    TMP DP  RH WIND       PRES   REMARKS
ARKADELPHIA    CLOUDY    68  68 100 CALM      30.07S
CAMDEN         CLOUDY    63  61  94 CALM      30.06F
TEXARKANA      CLOUDY    69  65  86 SE5       30.05F
EL DORADO      LGT RAIN  64  62  93 CALM      30.06F
DE QUEEN       MOCLDY    65  65 100 CALM      30.03F
$$

ARZ056-057-069-020800-
SOUTHEAST ARKANSAS

CITY           SKY/WX    TMP DP  RH WIND       PRES   REMARKS
PINE BLUFF     MOCLDY    65  63  93 CALM      30.08S
STUTTGART      CLEAR     64  59  82 MISG      30.08S
MONTICELLO     CLEAR     63  63 100 CALM      30.06F

$$





USA.gov is the U.S. government's official web portal to all federal, state and local government web resources and services.